TITAN 3C TRANSTAGE DEB, 1684

Orbit data source: Space-Track

TITAN 3C TRANSTAGE DEB, 1684 is space debris in LEO originally from a launch on Fri, 15 Oct 1965 UTC launched from the Air Force Eastern Test Range (AFETR). Debris objects in space refer to the collection of defunct objects orbiting the Earth. Examples of debris include non-operational satellites, rocket bodies, and fragments generated from explosions, collisions, or faulty payload assembly.

Loading next visibility...
Identifier
1684, 1965-082AX
Orbit
LEO
Country
Flag of USUS
Related business
Manufacturer
Unknown
Mission
Spacecraft
Bus & Motor
Unknown
Mass
Unknown
Launch date (UTC)
1965-10-15 (60 years ago)
Launch vehicle
Unknown
Launch site
Air Force Eastern Test Range (AFETR)
Object type
Payload
Rocket body
Debris
Shape & HBR
Unknown shape, 0.9 m
Radar Cross Section
Large (>1 m²)

Expand to show TLE details & history
Last TLE update: 14 hours ago

TLE from 14 hours ago
0 TITAN 3C TRANSTAGE DEB
1  1684U 65082AX  26035.53273023  .00001219  00000-0  31408-3 0  9993
2  1684  32.2124 213.9588 0167994 353.2417   6.5967 14.39987240123402
Epoch: 2026-02-04T12:47Z
TLE epoch observation values (Epoch: 2026-02-04T12:47:07.891Z)
Latitude
-0.00004°
Longitude
-112.5221°
Altitude
638.17 km
Speed
7.604 km/s
True Right ascension
14h 15m 50s
True Declination
0° 00' 00"
Sunlit
Object was in daylight at epoch
Visualization orbit readout
Latitude
Unknown
Longitude
Unknown
Altitude
Unknown
Speed
Unknown
Apparent Right ascension
Unknown
Apparent Declination
Unknown
Sunlit
N/A
Visualization observer readout
Local Sidereal Time
04:33:41
Azimuth
Unknown
Elevation
Unknown
Doppler factor
Unknown
Orbital elements
Apogee altitude
882.04 km
Perigee altitude
642.137 km
Semi-major axis
7,140.226 km
Eccentricity
0.0168
Inclination
32.2124°
RAAN
213.9588°
Arg. of periapsis
353.2417°
True anomaly
6.82256°
Mean anomaly
6.5967°
Eccentric anomaly
6.70915°
Mean motion
3.59729 °/min
Orbital period
100.08 mins
BSTAR
0.00031408

Documentation

Showing up to 5 results
|